Theta_e
292 291 291 291 291 291 290 289 289 289 289 289 288 287 287 287 287 286 286 287 288 290 291 290 290 291 290 291 291 291 291 291 287 289 291 291 292 291 290 291 293 293 293
291 291 291 291 290 290 289 289 289 288 288 288 287 287 287 286 286 286 286 286 286 288 289 289 289 290 290 290 290 290 290 291 289 286 288 289 289 288 290 290 291 292 292
291 290 290 290 290 289 289 289 289 288 287 287 287 286 285 285 285 286 286 286 288 289 289 289 289 289 289 289 290 289 290 290 289 287 286 289 288 289 288 289 289 289 289
291 290 290 290 290 289 289 288 288 288 287 286 286 285 285 285 285 285 286 287 288 288 289 289 289 289 288 288 288 288 289 288 287 287 286 286 286 286 286 286 286 285 287
290 290 290 290 290 289 288 288 288 288 287 286 285 285 284 285 286 285 286 286 287 288 288 289 289 288 287 288 289 288 288 287 287 286 284 285 285 285 285 287 286 287 288
290 290 290 290 290 288 288 289 288 287 286 285 285 284 284 286 289 290 289 286 287 287 286 287 288 287 288 289 289 290 290 288 287 287 285 284 285 286 287 286 285 283 282
290 290 290 290 289 289 288 288 286 286 285 284 283 284 283 284 288 288 288 286 287 287 287 286 286 286 286 287 288 289 289 290 290 289 287 286 286 286 283 281 282 281 281
288 290 290 290 288 288 287 286 285 284 284 283 283 284 283 284 288 288 288 286 286 286 286 286 285 285 286 286 287 287 287 287 288 288 288 288 285 283 282 281 280 279 281
287 287 288 288 287 286 286 285 284 284 283 283 283 282 283 283 287 287 287 285 285 284 284 285 285 285 286 287 286 285 285 286 289 290 287 285 283 282 281 278 278 276 280
288 288 288 287 287 286 286 284 283 284 283 283 283 283 282 283 286 288 286 283 284 284 285 285 285 285 287 287 286 285 283 284 284 284 283 281 280 279 279 277 276 274 276
288 288 287 287 287 286 284 282 284 282 283 282 282 281 282 283 283 287 288 283 283 284 284 284 284 286 287 288 288 284 284 286 283 281 279 279 279 278 276 275 274 273 273
287 287 287 286 286 284 284 283 283 282 280 279 278 276 278 282 283 286 288 288 286 284 282 284 284 286 286 286 285 286 285 284 281 279 278 278 277 276 275 275 274 272 272
286 287 286 285 283 283 282 282 282 281 279 278 279 277 276 279 281 286 288 288 287 284 284 284 287 287 286 285 285 284 281 280 280 278 277 277 277 277 277 275 273 272 272
287 286 285 284 282 282 282 282 281 280 279 279 278 277 275 274 276 277 279 279 284 284 284 284 285 285 284 284 276 281 280 279 279 278 277 276 272 269 271 271 271 271 270
285 284 283 283 282 282 282 281 281 280 282 279 278 276 273 270 275 281 279 282 284 284 284 283 282 281 279 280 276 277 279 279 278 278 271 272 267 267 268 269 269 269 268
283 282 283 283 282 282 281 278 284 284 285 285 284 280 278 283 286 287 287 287 287 287 282 281 280 280 278 280 278 271 277 277 277 275 269 267 263 264 265 266 269 268 265
283 282 282 282 282 281 280 280 279 279 287 287 287 288 288 285 287 287 288 287 287 287 281 280 273 279 280 279 278 269 272 276 275 267 264 262 262 262 262 264 264 263 258
278 280 282 282 282 281 280 280 280 280 279 274 281 286 288 288 288 288 288 286 275 279 281 279 278 276 280 279 278 268 271 276 273 266 263 260 259 260 260 261 258 256 256
278 279 282 282 281 281 279 277 277 276 273 267 267 276 273 285 285 286 287 271 270 269 281 279 278 274 279 278 274 268 271 271 268 267 265 258 257 260 256 257 256 257 255
278 278 279 280 278 277 277 275 276 275 271 267 265 265 273 270 268 266 264 266 267 272 281 279 277 268 268 266 266 265 267 267 264 267 259 256 256 259 258 256 254 254 253
277 277 277 277 278 277 277 278 276 275 272 270 270 265 276 276 276 269 264 262 265 268 272 273 269 267 265 266 264 264 265 270 268 264 259 256 256 256 254 256 254 253 256
275 276 276 276 276 275 276 275 273 272 270 270 267 266 281 274 273 265 265 267 268 269 271 270 270 267 267 268 268 268 267 271 270 264 260 257 256 256 254 254 254 251 250
272 272 273 274 274 275 274 271 273 272 272 269 269 269 268 273 278 278 278 278 270 265 267 263 267 264 263 268 270 271 271 273 272 267 263 259 257 257 256 255 255 250 250
268 269 270 270 271 272 273 273 274 273 272 267 265 265 265 265 267 270 271 273 280 278 273 263 265 267 265 267 269 270 270 274 271 268 266 262 258 256 255 254 254 249 254
262 264 266 267 269 270 270 270 270 266 266 267 272 272 264 263 265 267 269 270 279 279 278 276 265 265 268 268 269 271 273 273 271 268 266 263 259 257 256 256 254 253 249
255 256 257 259 264 266 267 268 268 270 270 266 262 260 261 263 265 268 269 269 271 274 273 276 274 269 267 268 269 273 274 273 269 268 266 263 260 256 256 255 254 256 254
Wind_Speed
9 7 9 8 9 8 8 7 7 6 6 6 6 5 5 4 3 3 2 0 1 1 2 3 4 5 4 5 5 6 7 7 10 7 7 8 10 9 10 10 8 9 8
8 9 8 9 8 8 7 7 7 7 6 6 6 5 4 4 4 4 4 2 1 2 3 3 5 4 6 7 6 8 7 8 8 13 11 9 5 8 11 11 9 8 8
9 9 9 9 8 8 8 7 7 7 6 6 5 5 5 5 5 4 3 1 2 2 3 4 5 6 7 6 7 8 7 6 7 7 9 5 6 8 9 10 11 9 6
9 9 10 9 9 8 8 7 7 6 6 6 5 5 5 4 4 4 4 2 2 3 4 5 5 6 7 8 6 7 7 6 6 7 7 7 6 6 5 9 8 4 8
10 9 9 7 8 8 8 7 6 6 6 6 6 5 4 3 3 4 3 1 2 3 4 5 5 5 9 9 6 7 8 8 6 6 9 8 9 8 8 7 8 8 10
10 10 8 9 9 9 8 8 7 6 6 6 5 5 5 2 2 5 2 1 2 3 4 4 4 6 8 12 14 16 14 8 8 6 7 10 8 9 7 6 6 8 7
10 10 11 10 10 8 7 8 7 7 6 5 5 5 5 5 4 3 2 1 2 3 4 4 5 4 6 7 12 16 14 13 12 9 11 9 8 4 5 8 8 8 8
7 10 10 11 10 9 9 8 7 5 6 5 5 5 5 4 6 4 2 2 2 4 4 4 5 6 5 8 10 8 8 8 7 6 8 8 3 3 4 6 9 9 8
9 7 8 10 10 9 9 9 6 6 4 4 4 5 5 3 8 5 4 1 3 4 4 5 4 5 8 13 9 8 8 8 8 11 2 3 5 8 9 5 4 5 4
15 13 10 10 11 11 9 9 4 4 5 5 5 5 4 5 7 8 5 2 2 3 4 5 7 6 10 13 7 5 8 7 6 4 3 2 4 5 8 5 5 5 4
8 9 10 11 12 11 8 4 7 5 5 4 4 2 4 5 6 8 8 2 2 3 3 3 2 10 13 14 11 4 7 9 6 3 3 2 1 2 3 4 5 5 3
9 10 11 11 8 8 10 6 7 7 6 5 3 2 4 5 7 8 10 8 5 2 3 3 4 10 15 13 8 11 11 9 2 2 3 2 1 2 2 3 5 5 5
11 14 11 9 9 9 11 10 8 6 5 4 4 3 3 3 3 8 10 9 4 3 4 9 15 12 13 8 8 9 5 3 2 2 3 2 1 2 2 2 2 2 6
15 12 11 11 10 9 7 6 7 7 6 5 4 4 3 2 3 2 3 3 2 2 7 7 8 8 12 6 3 3 2 2 2 2 2 2 3 3 2 1 1 1 5
12 11 11 10 12 10 8 8 8 5 7 6 5 4 4 2 4 7 7 4 3 4 5 5 3 3 4 2 2 3 2 2 2 1 1 2 2 2 2 2 2 3 4
11 10 11 11 10 9 8 4 7 5 13 9 8 6 3 6 7 10 10 8 7 7 1 4 5 3 4 5 3 3 2 2 1 1 1 1 1 1 2 3 4 4 5
11 11 10 11 11 10 8 8 7 3 9 9 9 11 12 8 9 8 9 9 8 6 2 4 3 3 4 3 3 2 2 1 1 2 2 1 1 2 3 4 3 2 3
5 9 10 10 10 9 8 7 5 7 6 2 4 7 9 8 6 6 7 5 1 2 3 6 6 4 3 4 3 3 2 1 1 2 3 2 2 3 2 4 3 2 2
6 6 8 7 7 7 5 5 4 4 4 3 2 2 3 1 2 2 5 4 4 3 4 6 6 3 3 3 3 3 2 2 2 2 3 2 2 3 2 3 3 3 4
4 7 5 6 6 5 5 5 4 4 3 2 3 4 1 2 1 1 1 2 2 3 6 6 6 4 4 4 3 3 2 2 2 2 3 3 2 3 4 4 3 3 2
4 5 6 4 3 3 4 5 5 4 4 4 4 4 7 4 3 3 3 3 3 4 5 5 4 4 4 4 3 3 3 3 3 3 4 3 3 3 3 4 4 3 5
4 4 3 2 2 2 3 2 3 3 3 4 4 3 4 1 1 2 3 3 4 5 4 4 4 4 5 5 5 4 4 4 4 4 4 4 4 4 4 4 4 3 3
4 3 2 2 2 2 2 1 0 3 5 4 4 3 3 3 3 4 4 5 3 4 4 3 4 3 3 4 4 5 5 6 5 6 6 6 5 5 4 4 6 4 3
5 4 3 3 2 1 1 2 3 5 4 3 3 3 3 3 4 4 4 3 3 3 3 3 3 5 4 4 4 4 3 4 5 7 9 7 6 6 4 4 5 4 6
3 3 3 3 2 1 2 3 3 3 0 2 1 2 3 3 2 3 4 4 4 3 3 3 3 5 7 8 7 7 6 10 8 10 7 8 7 9 7 5 6 5 4
2 2 2 2 2 3 2 2 2 1 1 2 2 2 3 3 2 4 5 5 3 3 4 3 4 7 8 7 8 9 10 10 10 12 9 8 8 6 6 7 9 7 8
Wind_Direction
132 125 131 132 131 132 136 139 138 130 137 135 134 128 123 120 121 113 114 245 29 313 289 278 284 287 290 291 284 281 279 282 287 297 296 303 295 291 300 299 299 289 289
135 132 133 134 137 137 139 140 137 139 137 137 133 131 145 161 161 164 159 160 201 302 286 279 287 299 295 288 285 286 284 284 286 295 307 311 292 307 299 304 299 294 291
135 139 142 147 148 148 143 141 141 139 138 131 134 155 170 171 167 177 172 164 341 285 286 292 294 293 293 291 291 299 294 287 286 288 289 291 299 293 296 302 302 290 282
150 154 158 162 158 151 146 146 143 144 140 148 164 164 163 166 173 170 162 178 327 277 274 276 281 284 291 302 304 295 291 284 282 279 285 285 284 291 279 302 298 284 295
158 162 169 157 148 144 146 148 139 144 154 159 154 151 159 169 175 183 189 201 329 300 283 281 279 291 291 292 302 299 292 287 271 279 293 292 302 311 302 301 291 300 300
166 170 159 159 157 157 153 141 146 157 157 151 150 153 149 156 204 136 149 127 291 282 289 279 282 297 294 309 307 303 304 292 283 279 282 291 297 300 297 304 310 305 312
173 172 168 163 164 153 151 149 160 169 155 155 153 155 162 172 166 176 139 229 272 288 287 292 298 295 301 301 305 301 301 288 281 286 280 284 286 319 325 304 302 295 281
180 183 174 168 161 157 160 165 164 160 167 156 168 177 182 178 193 193 182 211 301 285 283 284 287 296 302 308 304 300 306 281 279 278 269 288 329 333 310 301 299 290 277
182 188 178 163 157 166 174 176 167 152 159 169 172 186 194 194 227 200 210 194 301 294 295 282 282 297 301 308 307 301 313 302 288 287 31 3 4 3 356 328 322 319 288
188 183 180 172 165 175 182 175 145 157 167 164 179 196 188 221 225 222 213 184 277 296 287 274 286 301 305 311 304 301 312 315 335 328 300 311 28 23 15 7 327 299 287
173 166 169 172 175 174 159 163 155 156 153 167 192 198 226 223 232 224 224 215 202 302 306 279 249 303 306 312 313 298 294 315 325 318 300 297 17 42 26 17 7 347 330
153 171 178 181 168 151 156 165 163 158 164 188 169 231 245 239 228 231 222 233 252 276 292 297 284 297 326 312 308 307 322 322 306 300 289 302 344 36 57 31 33 27 11
167 183 188 170 160 157 162 173 168 166 169 191 198 204 232 247 239 228 219 231 238 291 293 301 309 310 312 310 300 309 335 315 308 290 303 313 347 13 74 70 30 19 35
183 196 169 171 167 165 175 179 166 168 180 193 192 214 217 232 252 231 211 221 252 283 295 305 300 313 310 302 308 309 300 303 310 312 322 342 356 10 16 354 38 26 44
183 179 176 175 178 176 189 183 184 192 184 181 195 183 172 228 236 200 190 198 190 237 291 310 312 329 310 285 290 276 293 297 310 353 25 315 358 12 10 1 44 54 78
185 180 181 174 176 177 179 178 221 201 204 194 178 172 222 216 173 186 206 228 244 261 186 298 303 301 296 287 290 285 262 284 302 55 19 48 67 66 45 34 54 81 91
191 184 179 173 171 170 175 178 183 239 230 218 221 222 218 214 221 228 220 227 241 253 206 271 252 252 282 277 274 239 256 258 71 109 109 129 123 69 73 78 55 71 52
177 175 177 172 168 167 176 181 166 171 178 204 255 215 217 214 219 230 228 225 298 266 252 272 271 247 246 268 265 241 244 193 133 128 111 132 122 118 100 98 70 96 79
155 162 163 152 149 154 144 141 149 151 165 145 349 340 343 267 247 235 225 166 189 203 260 265 264 244 233 240 256 237 202 168 174 148 132 147 157 120 90 96 106 87 108
64 82 91 125 135 138 140 147 155 177 145 174 197 227 195 83 64 284 271 180 201 221 255 257 252 234 243 222 219 213 164 148 161 163 134 143 162 134 132 131 120 120 80
48 62 66 69 90 111 139 183 183 146 151 198 230 219 194 184 207 219 231 222 223 230 237 237 245 235 223 211 195 185 170 183 189 162 144 154 154 133 120 110 114 101 118
39 57 88 111 110 183 195 160 134 142 170 195 217 235 223 85 246 254 262 252 242 233 232 224 242 220 208 197 186 181 180 191 185 162 146 151 143 128 132 123 121 113 113
33 46 45 58 64 30 58 46 45 201 205 205 182 180 179 193 229 254 262 274 252 258 254 223 240 240 212 209 188 181 184 200 185 159 154 161 158 154 156 141 142 123 131
9 20 17 7 15 343 288 243 234 231 214 205 204 208 220 218 214 218 235 244 235 245 257 246 227 230 202 203 199 185 174 155 154 163 154 162 164 147 137 132 144 135 138
11 8 4 353 336 273 254 252 255 257 188 57 20 336 276 270 288 283 268 247 265 244 243 255 221 229 225 208 196 188 176 164 159 152 150 152 161 160 148 143 150 139 126
7 13 344 328 313 307 316 313 297 241 231 258 257 262 266 288 288 275 269 271 275 239 229 233 235 233 231 221 208 197 177 168 159 164 153 152 156 160 152 146 158 154 151